Location: R�serve Fauniques des Laurentides
(47.3100°N, 71.1900°W)
Time: 13:57:35
(UTC-04:00)

Cosmos 1674 - Visible Passes

Search period start: 28 April 2017 00:00
Search period end: 08 May 2017 00:00
Orbit: 500 x 522 km, 82.5° (Epoch: 26 April)

Date Brightness Start Highest point End Pass type
(mag) Time Alt. Az. Time Alt. Az. Time Alt. Az.
28 Apr 4.7 04:41:53 10° SSE 04:45:14 30° E 04:48:37 10° NNE visible
29 Apr 5.1 04:25:41 10° SE 04:28:47 24° E 04:31:57 10° NE visible
30 Apr 5.4 04:09:33 10° SE 04:12:21 20° E 04:15:12 10° NE visible
01 May 5.5 03:53:32 10° SE 03:55:55 16° E 03:58:21 10° NE visible
02 May 5.6 03:37:40 10° ESE 03:39:31 13° E 03:41:22 10° NE visible
03 May 5.8 03:22:16 10° E 03:23:07 11° E 03:23:56 10° ENE visible
04 May 2.7 04:37:46 10° S 04:41:36 83° W 04:45:28 10° N visible
05 May 2.8 04:21:15 10° S 04:25:04 78° E 04:28:57 10° NNE visible
06 May 3.2 04:04:47 10° S 04:08:34 61° E 04:12:23 10° NNE visible
07 May 3.6 03:48:22 10° SSE 03:52:04 48° E 03:55:48 10° NNE visible
